Tracking 22779 objects as of 14-Apr-2021
HD Live streaming from Space Station
objects crossing your sky now

OPS 1294 (DMSP 5D-2 F7)

Track OPS 1294 (DMSP 5D-2 F7) now!
10-day predictions
OPS 1294 (DMSP 5D-2 F7) is classified as:


NORAD ID: 14506
Int'l Code: 1983-113A
Perigee: 796.2 km
Apogee: 813.9 km
Inclination: 98.3 °
Period: 100.8 minutes
Semi major axis: 7176 km
RCS: 4.7791 m2 (large)
Launch date: November 18, 1983
Source: United States (US)
Launch site: AIR FORCE WESTERN TEST RANGE (AFWTR)
aabbcc
Your satellite tracking list
Your tracking list is empty




NASA's NSSDC Master Catalog

Two Line Element Set (TLE):
1 14506U 83113A   21103.04868872  .00000040  00000-0  32688-4 0  9997
2 14506  98.3056 307.2908 0012338  61.8553  89.6409 14.28142882945726
Source of the keplerian elements: AFSPC